DELTA 2 DEB

基本信息
目录编号:
38677
目录名称:
DELTA 2 DEB
国际标识:
2008-012D
轨道中心:
EARTH
物体状态:
在轨
发射日期:
2008-03-15 UTC
轨道信息
数据来源: 国际轨道数据
星历时间: 2026-07-13T13:15:17+0800
半长轴: 10859.761km
偏心率: 0.3947782
轨道倾角: 39.993°
近地点辐角: 215.154°
升交点赤经: 237.725°
平近点角: 255.523°
近地点: 194.427km
远地点: 8768.821km
周期: 187.711分钟
每日圈数: 7.671361
详细信息
发射场:
AFETR
轨道高度:
LEO
数据来源:
AOE Integration Group
参考系:
TEME
时间系统:
UTC
历元类型:
SGP4
2D轨道图
3D轨道图
轨道高度分析图
轨道倾角分析图
轨道综合分析图
查看轨道综合分析图